Regional Weather Roundup
Issued by NWS Little Rock, AR

Home | Current Version | Previous Version | Text Only | Print | Product List | Glossary Off
Versions: 1 2 3 4 5 6 7 8 9 10 11 12 13 14 15 16 17 18 19 20 21 22 23 24 25 26 27 28 29 30 31 32

000
ASUS44 KLZK 260305
RWRLZK

WEATHER ROUNDUP FOR ARKANSAS
NATIONAL WEATHER SERVICE LITTLE ROCK AR
1000 PM CDT TUE APR 25 2017

NOTE: "FAIR" INDICATES FEW OR NO CLOUDS BELOW 12,000 FEET WITH NO
SIGNIFICANT WEATHER AND/OR OBSTRUCTIONS TO VISIBILITY.

ARZ001-003-010-029-260400-
NORTHWEST ARKANSAS

CITY           SKY/WX    TMP DP  RH WIND       PRES   REMARKS
FAYETTEVILLE   PTCLDY    71  63  75 S8G21     29.47S
FORT SMITH     CLOUDY    75  62  64 E5        29.46R
HARRISON       CLOUDY    70  61  73 S8        29.51R
BENTONVILLE    PTCLDY    70  61  73 S8        29.48F
ROGERS         MOCLDY    71  62  73 SE9       29.49R
SILOAM SPGS    PTCLDY    68  57  68 SE7       29.47F
HIGHFILL       PTCLDY    67  62  84 SE8       29.47S
$$

ARZ004-005-016-260400-
NORTH CENTRAL ARKANSAS

CITY           SKY/WX    TMP DP  RH WIND       PRES   REMARKS
BATESVILLE     PTCLDY   N/A N/A N/A SE7       29.56R
FLIPPIN        PTCLDY   N/A N/A N/A SE5       29.48R
MTN HOME       PTCLDY    69  57  65 S5        29.51R
$$

ARZ040-041-260400-
WEST CENTRAL ARKANSAS

CITY           SKY/WX    TMP DP  RH WIND       PRES   REMARKS
MENA           MOCLDY    75  70  83 S5        29.52S
$$

ARZ009-017-025-026-028-260400-
NORTHEAST ARKANSAS

CITY           SKY/WX    TMP DP  RH WIND       PRES   REMARKS
JONESBORO      CLEAR     68  54  60 S5        29.58R
NEWPORT        PTCLDY    70  55  59 S13       29.57R
WALNUT RIDGE   CLEAR     66  54  63 SE9       29.57R
BLYTHEVILLE    CLEAR     69  55  60 S8        29.61R
$$

ARZ022-023-033-042-044-260400-
CENTRAL ARKANSAS

CITY           SKY/WX    TMP DP  RH WIND       PRES   REMARKS
LITTLE ROCK    MOCLDY    72  61  68 S12       29.57R
N LITTLE ROCK    N/A     73  61  66 S7        29.56S
JACKSONVILLE   MOCLDY    74  60  63 S8        29.56R
CONWAY           N/A     77  61  57 S16       29.53R
SEARCY         CLOUDY    70  60  70 S12       29.58R
HOT SPRINGS    CLOUDY    76  64  66 S10       29.55S
RUSSELLVILLE   PTCLDY    75  61  61 VRB5      29.50F
$$

ARZ036-260400-
EAST ARKANSAS

CITY           SKY/WX    TMP DP  RH WIND       PRES   REMARKS
WEST MEMPHIS   CLEAR     69  56  62 S14       29.60R
$$

ARZ050-053-066-070-073-260400-
SOUTHWEST ARKANSAS

CITY           SKY/WX    TMP DP  RH WIND       PRES   REMARKS
ARKADELPHIA      N/A     75  64  68 S10       29.56S
CAMDEN         CLOUDY    73  59  60 S8        29.59R
TEXARKANA      CLOUDY    74  65  73 S14G23    29.55R
EL DORADO        N/A    N/A N/A N/A MISG      29.59R
DE QUEEN       PTCLDY    74  67  78 S7        29.49R
$$

ARZ056-057-069-260400-
SOUTHEAST ARKANSAS

CITY           SKY/WX    TMP DP  RH WIND       PRES   REMARKS
PINE BLUFF     CLEAR     69  60  73 S8        29.60R
STUTTGART      CLEAR     72  52  49 S9        29.60R
MONTICELLO     CLEAR     72  61  68 S9        29.62R

$$






USA.gov is the U.S. government's official web portal to all federal, state and local government web resources and services.